Theta_e
310 311 311 311 311 310 310 311 311 311 312 312 313 312 312 311 311 312 312 314 313 313 313 313 315 314 316 316 317 318 312 314 334 343 344 341 340 340 341 342 340 341 345 347 350
309 310 310 311 311 311 310 310 311 311 312 312 313 313 312 311 312 313 314 316 313 313 313 315 314 315 316 316 317 314 312 328 332 340 341 340 341 342 340 338 338 343 347 349 350
310 309 310 310 311 311 310 310 310 311 312 312 313 313 311 311 312 315 320 319 314 313 315 315 315 314 315 316 316 314 320 341 344 342 341 340 342 343 338 340 339 336 342 348 349
309 310 310 310 311 311 310 310 310 311 312 312 313 313 311 311 311 321 320 317 315 314 315 315 313 314 314 314 316 315 331 345 346 345 343 342 343 337 336 333 336 337 340 344 346
309 310 310 310 311 311 311 310 310 311 312 312 313 312 310 311 313 315 319 317 316 315 315 314 313 315 314 314 314 314 331 345 345 342 341 343 335 329 328 329 333 335 336 339 340
309 310 310 310 311 311 310 310 311 312 312 312 313 311 309 311 314 319 320 319 316 315 314 314 315 316 316 315 315 319 344 344 343 342 337 330 330 333 326 330 331 334 334 334 334
309 309 310 311 311 310 310 311 311 311 312 313 312 310 309 313 316 320 322 322 319 318 315 313 315 315 316 315 330 341 342 335 341 335 335 334 334 328 326 330 328 328 328 329 329
308 309 310 311 311 310 310 311 311 312 313 313 310 309 311 313 314 317 322 323 323 318 318 316 314 314 317 316 321 331 332 341 334 334 334 331 342 325 325 330 324 324 325 325 324
308 309 311 311 310 310 311 312 312 312 312 311 310 311 314 317 317 317 320 320 321 320 318 318 318 318 316 312 310 315 339 331 339 332 331 329 331 325 325 329 324 323 322 323 322
309 309 310 310 310 311 312 312 312 315 313 312 313 313 316 320 321 321 319 319 320 320 320 318 317 313 309 311 312 313 335 325 343 336 330 328 327 325 324 325 323 321 320 320 320
309 309 310 310 310 311 312 313 322 323 320 322 322 321 323 322 322 321 320 319 319 319 316 316 314 314 315 311 313 313 314 323 335 329 327 329 327 326 323 322 320 319 318 317 317
310 309 310 311 311 311 312 313 317 321 318 321 322 323 323 322 321 321 320 318 318 317 316 315 314 315 315 315 314 313 313 313 314 324 327 326 327 325 322 322 320 318 317 316 315
310 309 310 311 312 314 317 320 321 320 318 321 322 322 322 321 321 321 319 317 318 318 317 315 316 317 316 316 315 314 314 314 317 325 324 326 327 324 322 320 320 319 318 316 315
310 309 310 311 314 322 322 321 321 321 317 319 321 322 321 322 323 322 322 318 317 317 317 317 318 319 320 318 315 315 315 315 324 324 327 325 330 323 322 320 317 316 315 315 314
310 309 310 311 323 321 321 321 321 322 325 325 322 321 323 322 322 322 321 318 317 318 317 318 319 318 318 319 318 318 319 317 319 322 324 325 322 320 321 321 318 314 313 314 314
310 310 310 311 315 320 321 321 322 323 329 326 322 323 324 323 324 322 321 318 319 317 318 317 318 318 317 318 317 318 318 313 315 316 323 324 326 319 324 325 321 313 313 314 313
310 310 311 311 318 320 318 321 320 322 323 323 323 322 323 325 325 324 320 318 316 317 316 318 318 317 319 319 317 317 314 315 315 321 323 319 322 322 318 321 319 313 312 313 312
311 311 311 311 317 319 321 317 318 323 323 322 322 322 326 325 325 327 326 323 321 317 315 316 318 318 319 319 318 317 313 315 318 317 317 319 324 320 312 315 316 313 312 312 311
319 317 312 312 316 316 320 316 321 323 322 321 320 320 319 321 323 326 326 326 324 321 321 323 323 323 324 323 320 320 316 315 316 316 316 317 319 316 312 313 312 311 311 309 310
322 319 317 316 316 319 313 316 319 321 322 320 320 319 321 321 321 319 326 326 327 323 320 323 325 324 324 322 322 325 321 321 315 320 321 323 321 319 312 311 310 310 308 308 310
326 323 319 319 319 320 316 317 320 319 321 321 321 321 321 321 321 320 326 324 322 326 323 323 323 325 325 323 324 327 325 323 319 320 322 325 325 319 310 309 309 308 307 309 309
325 316 320 319 320 315 318 320 319 317 318 320 319 320 320 320 320 323 323 320 318 320 323 323 321 324 325 326 326 326 327 323 326 328 326 325 322 309 307 307 308 308 308 308 309
327 320 319 320 319 318 318 316 318 316 316 317 318 317 317 318 319 320 321 320 319 316 317 319 321 324 324 323 324 327 329 328 325 325 328 331 328 310 309 308 308 308 308 308 307
322 316 319 314 314 317 316 314 314 315 316 314 314 314 314 316 317 318 316 317 315 318 318 318 319 321 322 324 323 325 325 327 326 327 329 329 326 314 311 310 309 309 309 308 308
320 316 315 310 311 311 311 312 314 314 314 315 313 314 313 312 312 313 315 313 314 317 314 314 319 320 318 320 316 315 314 313 325 323 326 324 325 318 312 311 309 308 307 308 307
317 317 312 311 311 311 309 311 313 314 314 315 315 314 312 312 312 313 311 311 311 312 312 311 315 318 316 319 318 315 314 313 311 310 312 322 323 314 313 310 307 308 307 307 307
316 316 312 311 310 310 310 312 312 312 315 315 315 313 312 313 314 313 313 312 311 314 311 310 310 313 315 317 317 315 314 312 309 306 306 320 317 308 308 308 308 307 307 307 307
Wind_Speed
11 12 12 12 12 12 13 12 13 13 13 13 13 13 13 14 16 20 23 16 10 11 15 8 7 4 6 7 7 6 4 3 6 8 5 12 6 10 4 5 6 5 16 25 26
12 12 12 12 12 12 12 12 12 12 13 12 12 12 13 15 17 20 11 9 12 10 11 6 4 3 6 6 7 5 4 7 8 7 10 14 12 9 4 5 7 21 25 26 26
12 12 12 12 12 12 12 12 11 12 13 12 12 11 11 12 17 1 1 5 9 16 12 6 3 2 3 5 5 4 6 5 2 15 25 18 10 6 6 4 2 16 25 30 32
12 11 12 12 12 11 12 11 11 12 12 11 10 10 10 9 3 1 3 5 4 14 15 7 4 3 2 3 5 5 8 11 10 17 21 17 11 7 8 8 19 24 26 28 29
12 11 12 11 11 11 10 10 10 11 12 11 9 9 9 7 11 7 6 3 7 13 13 9 8 5 3 2 5 4 7 12 22 22 23 13 6 6 18 19 21 23 24 26 26
12 11 11 10 11 10 9 10 10 10 11 9 9 9 8 6 5 3 2 2 4 10 13 13 5 3 2 2 2 8 13 21 18 15 15 14 12 4 10 20 22 24 23 21 20
11 10 9 9 9 10 9 10 10 9 9 8 8 10 13 19 6 6 5 4 5 6 8 11 11 4 5 4 8 23 13 7 9 12 4 20 2 3 23 22 22 20 19 17 14
11 10 9 9 8 8 8 9 8 8 7 8 8 10 10 7 10 10 8 7 6 7 7 5 8 8 5 3 6 6 5 6 5 7 7 4 6 7 22 24 20 18 17 14 12
11 10 8 9 8 7 7 7 7 8 7 8 9 7 11 5 9 11 9 7 4 4 8 4 5 6 3 6 4 4 6 4 5 10 2 3 4 13 24 22 21 18 17 15 13
11 9 8 8 7 7 6 6 7 10 8 8 10 8 6 3 17 8 14 11 9 8 8 6 5 2 3 4 4 5 7 1 14 15 10 5 7 14 26 25 23 21 19 17 14
12 9 7 6 6 6 4 5 8 4 8 13 21 21 28 16 11 5 10 12 9 6 3 2 4 5 7 7 5 4 5 7 16 4 6 14 6 15 22 19 22 22 21 19 15
11 9 6 5 4 3 2 3 6 9 14 24 28 30 29 25 11 7 10 9 6 5 2 4 5 9 4 2 4 4 6 7 6 6 9 6 5 6 15 10 23 27 25 23 22
11 8 5 3 3 2 3 11 14 20 5 12 9 14 19 14 13 18 10 16 3 4 4 7 8 2 4 5 5 5 5 6 6 4 5 8 3 7 7 7 19 25 26 26 25
10 7 4 2 1 2 6 16 15 10 5 7 4 3 8 6 6 16 15 11 3 9 6 6 7 7 5 7 7 7 8 8 7 6 6 6 5 7 12 8 14 24 27 27 23
9 6 3 4 1 3 10 13 9 4 4 6 2 2 6 10 2 2 17 21 8 7 6 10 5 5 5 9 6 10 9 9 8 9 6 6 1 6 15 10 17 19 28 30 26
8 5 3 4 4 4 10 10 7 5 3 7 3 5 2 5 4 6 8 24 11 5 3 10 3 5 8 9 7 8 5 7 5 5 4 11 14 5 14 27 21 19 30 34 28
5 4 2 2 4 5 10 5 5 3 7 7 6 8 5 6 5 6 3 3 6 3 6 15 11 5 4 5 2 3 5 4 3 0 6 8 5 6 9 8 20 24 32 37 31
5 5 3 1 3 5 6 5 5 4 4 5 5 6 4 8 3 7 5 4 3 3 2 4 9 0 6 1 6 6 9 5 9 5 6 5 7 5 7 13 30 35 38 38 33
9 11 11 3 4 5 3 5 3 3 5 5 7 4 5 6 3 7 5 2 1 2 3 2 5 2 1 4 2 6 4 5 3 2 3 3 3 3 9 12 23 30 35 31 34
6 10 11 11 2 5 5 2 2 8 10 3 3 5 7 7 7 7 3 2 3 2 1 5 3 3 4 5 5 1 4 2 4 2 5 3 2 3 1 8 14 20 25 32 35
6 5 6 7 7 6 3 4 5 23 22 10 8 6 6 5 4 5 6 6 11 6 3 3 3 5 1 3 2 6 5 5 3 4 0 2 2 6 7 8 14 20 25 34 35
7 4 3 3 6 3 3 7 9 15 22 10 6 5 4 5 4 4 4 3 22 7 5 3 2 3 3 4 11 6 4 4 3 4 2 4 4 5 9 12 19 24 28 31 32
5 5 16 4 3 4 3 5 9 13 9 7 7 5 3 5 4 6 6 8 19 8 4 5 3 3 8 5 5 2 5 4 5 4 3 2 4 3 20 17 18 25 30 36 33
4 3 9 25 13 1 2 6 7 10 5 15 5 6 4 4 2 4 6 5 20 11 12 2 2 4 4 2 3 4 5 6 7 4 6 8 6 8 14 22 32 31 37 35 33
7 5 4 4 11 8 6 5 7 7 11 21 7 8 5 7 8 6 3 7 10 6 7 4 2 1 1 5 5 7 8 11 9 5 7 11 15 20 22 18 26 27 29 29 29
6 4 10 10 6 10 10 6 7 8 7 6 5 7 3 5 5 6 6 3 7 6 6 4 5 3 6 2 5 4 13 12 9 8 6 7 10 4 21 22 25 27 30 29 31
13 10 6 14 10 4 5 3 6 10 4 7 5 5 7 6 18 26 25 17 3 2 2 2 1 2 5 2 5 3 6 8 2 9 6 4 2 13 14 21 26 27 30 30 28
Wind_Direction
312 310 309 310 309 306 302 302 298 299 302 302 300 297 294 290 287 284 276 285 272 235 234 242 257 241 221 198 192 148 81 175 197 181 181 151 158 174 179 156 48 68 145 148 160
312 308 304 306 307 306 303 301 296 302 304 304 302 298 299 301 296 285 306 288 235 229 196 212 202 189 178 194 175 119 116 208 191 194 163 159 155 174 164 127 97 89 133 154 160
313 308 304 303 302 304 302 299 302 305 303 303 302 299 299 309 314 291 357 336 225 202 206 221 229 205 176 180 172 143 168 203 88 148 147 159 184 197 184 67 103 121 131 150 161
312 313 306 300 300 304 302 302 305 303 300 301 299 301 303 306 286 113 351 340 208 191 207 219 199 180 137 186 179 95 146 166 161 145 145 146 155 103 84 109 145 144 148 153 159
320 317 306 303 301 300 302 302 304 302 299 300 300 298 304 292 264 277 300 331 191 190 203 204 184 176 173 203 169 119 189 170 155 148 143 144 112 128 103 123 141 145 149 149 148
322 314 308 305 300 300 304 304 303 300 297 299 303 306 300 277 287 296 244 252 210 212 212 201 200 220 276 194 127 164 158 141 154 161 139 131 145 123 141 147 138 144 135 136 137
319 313 311 303 301 303 311 308 303 297 293 294 296 298 283 259 268 191 220 235 241 245 229 218 198 301 334 358 37 120 106 65 138 144 141 143 43 126 157 163 141 136 135 139 138
324 316 314 306 306 309 313 307 303 296 292 291 294 297 264 272 237 230 215 234 246 228 243 243 231 256 255 125 97 91 50 114 240 196 180 251 205 152 169 165 148 147 147 147 143
328 320 314 307 313 315 317 312 308 299 295 295 296 299 271 293 275 224 225 219 245 244 230 234 280 242 165 111 50 317 157 163 173 224 170 252 222 180 179 178 165 169 164 163 160
332 324 316 312 318 319 326 322 317 300 288 289 274 295 269 143 337 302 213 242 255 272 269 238 192 120 53 85 191 191 155 203 179 210 208 177 245 167 184 185 174 178 171 168 170
334 329 322 318 320 322 330 308 330 298 287 264 277 263 279 300 315 283 227 211 241 248 185 12 77 236 238 193 170 160 130 177 209 229 142 216 213 189 179 179 167 169 170 168 166
334 329 322 317 315 314 309 316 16 341 299 287 272 259 259 263 294 281 238 211 177 205 119 11 240 237 242 223 216 187 184 208 261 217 163 161 260 198 187 191 177 172 174 167 159
332 329 319 307 295 286 14 19 336 328 275 303 272 252 248 242 233 256 223 214 147 171 182 192 240 205 177 260 239 236 191 220 185 92 50 117 347 198 213 184 189 195 191 181 172
327 322 302 270 239 16 32 347 346 335 36 282 271 313 177 201 262 234 230 206 173 212 181 231 258 236 257 240 173 264 203 231 143 131 204 184 235 215 199 189 184 187 190 180 173
324 315 282 219 191 12 342 346 1 354 33 327 332 329 188 177 310 264 217 209 197 198 119 241 227 228 229 236 163 241 249 212 193 201 127 170 95 265 153 200 211 188 175 179 174
326 316 280 242 244 336 342 349 339 34 343 331 48 320 87 319 303 6 184 209 244 199 188 244 264 170 220 254 171 238 308 44 50 120 220 201 198 216 182 204 196 170 173 176 170
344 345 321 204 144 355 343 334 37 76 325 345 334 339 77 352 35 355 216 211 196 151 241 252 257 273 210 285 331 128 79 299 310 91 227 196 187 228 219 225 186 168 165 172 170
33 30 14 143 183 346 353 53 67 274 304 312 328 358 62 12 1 358 15 11 11 126 94 184 285 226 3 284 261 223 168 171 239 213 230 131 213 233 286 272 167 165 161 167 167
63 58 54 55 149 5 353 55 220 273 313 309 335 37 353 1 339 1 350 302 279 3 166 157 249 298 160 284 208 295 189 215 223 86 122 216 296 299 20 117 143 149 152 157 163
60 73 55 49 44 352 65 240 263 341 316 351 23 17 12 348 18 16 316 342 298 306 227 214 285 268 268 48 30 69 309 24 17 270 239 250 274 270 306 141 140 144 143 154 161
30 76 47 35 9 19 83 276 12 9 33 32 7 8 6 355 303 333 326 318 3 306 289 167 189 274 303 88 176 2 12 3 92 116 139 309 270 302 176 166 150 138 142 157 167
47 52 45 20 25 24 39 340 33 25 21 24 49 57 343 350 311 30 11 350 347 336 332 340 202 269 326 184 124 126 92 356 87 330 78 139 282 342 102 121 138 139 146 160 164
75 78 36 8 52 355 25 10 57 22 20 2 19 12 348 3 359 32 335 334 3 22 10 330 336 0 338 355 2 349 131 112 14 326 135 130 270 179 131 130 148 149 158 162 160
77 40 54 54 38 42 80 11 1 356 54 7 6 360 340 6 11 339 339 322 333 355 0 128 87 153 193 269 291 1 29 179 171 188 182 221 196 200 179 163 167 176 168 165 164
54 41 44 354 8 28 59 21 8 358 4 20 12 4 339 16 342 351 310 315 315 346 14 63 310 2 257 279 92 70 15 345 212 228 186 235 206 199 194 180 168 157 153 154 156
81 95 81 33 18 35 14 346 10 327 14 334 359 324 87 168 195 263 283 265 251 323 352 323 253 295 294 256 52 50 17 9 33 349 316 288 232 260 169 154 141 143 144 146 155
65 94 88 21 13 60 346 358 12 5 334 28 306 311 329 301 307 286 275 267 294 306 266 12 288 122 266 340 165 78 17 26 11 14 300 266 250 123 130 146 144 140 142 149 160